Wind_Speed
38 29 29 17 19 21 37 37 27 32 29 24 23 19 21 20 16 21 19 20 18 19 18 18 16 14 13 12 17 22 24 24 25 21 18 19 20 23 21 22 22 22 23 25
30 33 31 23 24 28 28 24 29 30 25 25 22 24 24 26 25 19 23 24 22 23 23 24 22 22 20 17 17 22 24 25 24 23 23 24 23 25 24 24 25 26 29 31
25 29 22 24 38 35 27 19 18 29 29 24 26 25 26 20 26 17 23 23 27 24 24 21 24 26 26 25 23 22 25 26 29 31 30 29 28 29 27 26 27 31 29 29
17 17 9 22 28 27 27 29 26 18 27 24 27 26 28 27 18 21 25 21 22 18 20 22 25 27 27 27 28 27 27 30 32 30 30 31 30 28 28 29 27 28 29 30
20 26 13 12 17 21 25 29 29 18 18 21 17 17 15 17 19 20 21 21 18 17 20 24 25 26 24 25 28 30 31 33 28 25 23 23 25 24 24 26 27 28 28 27
15 13 9 13 26 16 10 23 20 14 18 23 27 24 23 22 18 20 20 20 18 19 20 23 23 23 24 25 27 29 31 26 24 21 18 20 22 24 26 27 28 27 27 27
13 14 6 8 9 20 29 23 17 26 21 22 22 22 21 17 15 21 19 17 17 19 20 19 20 21 23 24 26 26 24 22 21 20 22 23 25 26 27 27 27 27 28 29
19 15 8 13 10 16 16 11 16 19 21 17 13 10 16 16 17 19 19 16 15 17 18 18 18 19 21 23 23 23 23 23 24 25 26 26 26 27 28 28 28 29 30 31
22 21 19 16 29 9 20 15 16 14 20 23 24 19 15 18 18 19 18 18 17 17 19 20 19 19 21 21 21 23 25 27 29 29 29 29 30 30 29 31 32 33 33 33
23 27 23 25 28 25 24 19 14 14 15 13 11 16 21 19 15 17 18 19 19 20 22 23 22 22 23 23 23 26 29 32 33 33 33 34 33 32 33 33 34 35 35 34
26 25 24 27 19 25 27 35 26 21 17 15 11 9 11 17 24 25 26 23 22 23 24 25 26 27 27 27 27 29 32 35 36 37 37 37 37 37 37 36 35 35 35 34
29 22 23 18 21 11 16 30 36 23 21 16 16 15 15 16 18 23 24 25 25 27 27 27 27 28 29 30 31 33 35 38 40 40 40 38 39 39 38 38 37 32 29 30
17 22 17 13 9 7 8 6 8 13 17 33 27 25 24 24 22 24 28 32 31 28 26 26 28 30 32 34 36 37 39 41 42 42 42 42 41 41 41 39 35 30 31 36
29 20 20 16 14 13 14 13 19 23 25 25 26 26 24 25 24 26 27 26 25 26 28 29 32 31 31 33 38 41 41 44 45 45 45 45 46 46 42 38 38 38 38 39
27 28 26 19 17 16 18 22 24 24 26 26 27 27 25 21 22 24 27 29 29 28 28 29 31 32 35 38 40 40 42 44 44 44 45 45 43 39 35 34 33 34 36 38
26 24 21 19 20 21 21 22 24 25 24 25 23 21 20 22 23 24 25 26 26 26 28 30 32 34 37 36 33 33 35 37 38 37 35 31 31 32 31 31 33 35 36 37
31 26 18 20 19 19 18 20 21 20 20 20 18 15 15 16 17 20 23 26 28 29 32 35 37 35 32 31 32 35 36 32 28 26 26 26 27 27 29 31 33 35 37 40
21 23 23 21 20 21 22 21 20 18 19 22 22 24 23 22 19 20 24 27 30 33 32 31 28 27 28 32 30 23 20 20 21 22 23 24 27 29 32 35 38 40 41 43
18 20 21 23 25 26 28 30 30 30 32 31 32 31 28 24 21 23 28 30 29 28 25 24 24 27 22 16 15 16 16 17 19 23 26 29 32 35 38 41 43 44 45 45
28 31 32 32 33 34 34 35 33 32 27 26 25 21 19 21 22 23 23 21 20 20 21 19 13 11 11 12 13 16 20 23 27 30 34 37 40 42 43 44 45 46 47 47
27 26 20 19 20 21 21 23 22 22 20 18 16 15 15 15 13 12 12 12 10 7 7 7 8 11 14 18 21 25 28 31 34 37 39 41 43 44 46 47 48 49 50 50
15 14 12 12 14 16 17 14 12 13 15 14 11 10 8 7 6 4 3 2 2 4 8 12 15 19 22 25 29 32 35 37 40 42 44 45 46 47 48 48 49 49 48 48
7 6 7 7 8 10 12 12 12 12 12 12 10 9 8 6 4 1 3 6 10 13 16 19 22 26 29 31 34 37 39 40 41 42 43 45 46 47 47 48 47 46 45 43
13 14 15 16 16 15 13 15 13 13 12 12 10 7 3 1 5 8 11 14 17 19 22 25 28 30 32 33 34 36 37 39 40 41 42 42 42 42 41 41 39 38 37 35
14 14 13 13 11 11 12 14 11 9 6 4 2 4 7 10 12 14 17 20 22 24 26 27 27 28 30 32 34 36 37 37 38 38 37 36 35 34 33 31 30 29 29 29
12 11 10 10 10 11 9 7 4 3 4 7 9 11 13 15 18 20 22 24 24 24 24 26 27 29 30 32 32 32 32 32 31 32 31 31 30 29 28 27 27 26 26 26
7 8 8 7 6 5 4 5 7 9 10 13 15 17 19 20 21 21 21 21 22 24 26 27 28 29 29 29 29 29 29 28 28 28 27 27 26 26 25 25 24 24 24 23
Wind_Direction
226 237 221 273 244 228 222 227 224 237 234 244 242 240 242 236 241 244 243 237 244 247 255 276 266 276 272 271 268 268 262 271 279 285 280 271 270 266 269 272 263 262 259 264
232 240 237 254 257 245 240 258 251 243 237 229 234 241 247 246 242 254 247 239 234 243 255 275 271 276 268 267 267 264 264 263 272 282 285 276 269 260 264 267 266 270 276 278
229 230 223 263 252 232 250 240 245 242 243 254 241 237 242 252 236 260 236 241 239 254 257 261 278 280 274 271 266 256 260 268 279 287 282 274 268 265 264 268 272 271 273 273
239 217 227 243 258 249 241 241 254 251 257 265 245 252 248 253 242 241 235 238 246 258 265 275 278 279 281 277 270 270 274 273 282 280 273 267 265 261 267 271 268 270 271 272
209 201 240 236 233 232 233 244 235 253 246 234 239 231 226 241 257 252 241 242 252 252 263 279 277 280 280 278 275 279 280 287 284 276 267 261 262 262 266 271 275 276 277 281
221 212 221 264 221 204 253 252 212 268 251 254 258 251 250 243 250 247 224 233 240 258 270 277 281 282 280 276 274 274 280 278 274 270 263 262 268 273 278 281 282 284 285 284
216 222 243 238 238 238 243 258 255 256 247 240 246 251 248 253 246 219 225 242 266 279 278 276 280 279 277 273 272 272 269 264 262 262 265 270 275 280 282 283 284 283 284 285
239 250 234 226 218 214 233 226 247 248 235 240 241 273 261 248 235 230 248 267 283 279 277 277 281 282 280 276 272 269 265 262 263 264 268 273 277 281 282 282 282 282 283 283
226 243 245 246 233 224 227 239 235 273 261 256 262 256 249 235 252 254 260 277 285 281 277 278 282 284 284 281 275 268 261 260 261 265 269 272 275 277 278 278 278 280 282 281
247 249 251 245 246 250 240 244 251 259 276 251 242 255 248 229 235 251 271 274 273 272 273 279 282 283 284 279 271 263 260 261 263 266 268 270 270 271 272 272 275 278 279 278
249 248 255 261 277 247 234 244 243 245 261 237 243 236 241 247 262 258 265 267 267 268 270 274 280 283 283 279 272 267 265 264 265 265 265 266 267 267 268 270 272 272 269 267
255 272 263 258 273 277 306 255 236 241 241 243 240 265 253 248 251 256 259 262 264 267 269 275 279 281 281 281 277 271 268 266 265 266 265 263 262 263 264 263 263 262 262 265
242 238 233 230 238 260 258 317 232 251 276 244 275 278 272 270 267 265 263 267 271 270 277 279 282 283 283 284 283 278 274 271 269 267 266 265 262 259 257 256 255 252 257 267
234 234 240 244 245 234 238 238 255 256 259 261 262 267 269 264 258 258 265 269 270 276 282 282 284 282 283 292 293 285 279 277 272 268 265 261 256 255 260 271 283 281 276 275
229 235 240 241 231 221 233 245 255 261 268 271 269 270 269 265 261 266 272 277 282 283 281 282 284 284 283 284 288 290 288 283 282 282 279 274 273 278 283 281 281 282 281 279
239 244 238 244 251 250 254 260 268 274 279 282 281 270 267 268 269 270 273 278 281 281 279 282 285 283 285 285 277 273 279 284 283 281 279 275 273 275 279 283 285 284 283 282
250 257 254 257 261 263 268 273 273 274 280 287 282 266 258 262 269 274 276 278 279 278 274 269 264 257 256 262 272 280 282 278 274 270 271 275 281 285 286 285 284 283 282 282
242 246 250 255 261 264 265 265 265 271 283 282 279 277 270 264 266 270 268 270 269 257 250 250 254 262 272 279 281 278 277 279 281 284 287 288 287 285 283 282 282 284 286 286
251 254 260 264 266 262 269 276 276 275 278 278 271 271 268 265 264 261 256 249 243 245 250 259 270 280 276 271 273 276 279 283 285 285 284 283 282 283 284 285 287 289 291 291
274 268 264 268 268 271 269 271 271 273 266 263 259 245 240 231 228 232 236 241 249 261 273 275 266 271 280 283 286 289 290 289 288 287 287 287 288 291 292 292 292 291 290 289
282 279 271 263 262 262 257 250 245 243 240 220 207 216 222 226 226 235 251 261 254 248 264 279 286 291 293 293 293 292 290 290 290 292 294 295 296 295 294 293 292 290 290 289
266 257 249 246 242 238 225 207 195 199 186 184 195 207 202 196 181 179 205 238 270 286 290 292 293 294 294 294 294 295 296 298 299 299 298 298 297 296 296 295 294 293 292 292
214 197 192 188 184 183 159 147 143 139 140 139 139 136 129 125 123 145 286 297 296 296 296 297 298 298 299 300 300 300 301 301 302 303 303 302 301 300 299 298 298 297 297 297
130 125 125 125 123 125 132 128 128 126 125 122 120 117 109 356 319 308 300 298 299 299 300 301 302 303 304 304 306 307 307 308 307 307 306 306 307 307 306 304 304 304 304 304
121 122 118 115 123 128 124 119 118 113 104 83 26 338 322 311 304 304 305 305 305 306 307 308 310 311 312 311 311 311 312 312 312 313 314 314 315 316 318 320 320 317 314 312
119 117 120 129 133 123 116 105 83 30 351 335 326 318 313 313 313 313 313 313 314 316 316 315 315 315 315 315 315 315 317 319 321 323 325 326 327 328 328 325 323 320 318 316
121 126 121 114 98 78 41 1 343 336 327 320 317 318 317 317 316 316 316 316 316 317 319 319 320 321 321 322 323 324 326 329 330 331 332 331 329 327 326 325 324 323 322 320
Height
3012 3017 3022 3024 3024 3028 3030 3033 3034 3037 3039 3041 3044 3045 3047 3047 3049 3049 3049 3052 3055 3055 3056 3056 3056 3057 3057 3058 3057 3059 3060 3062 3062 3062 3062 3061 3061 3061 3062 3064 3064 3063 3064 3064
3007 3014 3018 3020 3017 3021 3024 3027 3028 3031 3032 3037 3039 3040 3041 3042 3044 3045 3045 3046 3049 3049 3051 3051 3052 3052 3053 3054 3054 3053 3054 3055 3055 3055 3054 3056 3055 3056 3057 3057 3057 3056 3055 3055
3003 3011 3015 3013 3007 3012 3016 3022 3026 3025 3028 3031 3031 3032 3034 3035 3037 3038 3039 3042 3044 3045 3045 3047 3047 3047 3047 3048 3049 3050 3050 3049 3048 3047 3046 3046 3048 3049 3050 3050 3049 3048 3047 3046
3003 3008 3009 2999 3005 3009 3013 3016 3019 3020 3023 3024 3026 3027 3027 3029 3030 3032 3034 3036 3039 3041 3041 3040 3041 3040 3039 3040 3041 3042 3042 3042 3041 3039 3038 3038 3039 3040 3041 3041 3040 3040 3039 3037
2998 2999 2998 2998 3003 3005 3009 3012 3013 3016 3018 3020 3020 3021 3021 3024 3026 3028 3030 3032 3034 3035 3035 3035 3034 3033 3032 3032 3033 3033 3033 3032 3031 3031 3031 3032 3034 3034 3034 3034 3032 3031 3029 3027
2992 2992 2991 2991 2998 3002 3006 3005 3009 3012 3012 3015 3015 3013 3016 3019 3021 3022 3025 3027 3029 3030 3029 3029 3028 3026 3025 3025 3026 3026 3026 3026 3025 3025 3026 3026 3026 3026 3026 3025 3023 3021 3020 3018
2986 2986 2986 2990 2993 2997 3000 3004 3004 3009 3008 3008 3007 3009 3011 3012 3014 3017 3020 3022 3023 3023 3023 3022 3022 3021 3020 3019 3019 3019 3020 3020 3021 3021 3020 3021 3021 3020 3018 3017 3015 3013 3012 3010
2983 2983 2985 2988 2988 2991 2994 2996 2998 2999 3001 3000 3001 3003 3005 3007 3009 3011 3013 3014 3015 3016 3016 3017 3017 3016 3015 3015 3014 3013 3014 3015 3014 3014 3015 3015 3014 3012 3011 3010 3008 3006 3004 3002
2981 2980 2981 2983 2986 2986 2988 2990 2990 2991 2992 2993 2995 2998 3000 3002 3005 3006 3006 3007 3009 3009 3009 3009 3010 3010 3009 3008 3008 3008 3009 3008 3008 3008 3008 3008 3007 3005 3004 3002 3000 2997 2995 2993
2975 2975 2977 2979 2981 2982 2984 2983 2983 2985 2986 2987 2989 2993 2994 2997 2999 3000 3000 3001 3003 3002 3001 3001 3002 3001 3001 3001 3001 3001 3001 3001 3000 3000 3000 2999 2998 2996 2994 2992 2990 2987 2984 2982
2968 2971 2972 2972 2974 2975 2976 2979 2981 2982 2984 2983 2985 2987 2989 2991 2992 2992 2994 2996 2996 2995 2995 2994 2993 2992 2992 2991 2992 2992 2991 2991 2991 2990 2989 2988 2986 2985 2983 2981 2979 2977 2974 2972
2964 2968 2966 2967 2969 2970 2969 2968 2972 2976 2978 2979 2980 2982 2983 2983 2985 2986 2986 2987 2987 2987 2986 2986 2986 2985 2984 2983 2983 2982 2982 2981 2980 2979 2978 2977 2975 2973 2972 2970 2968 2966 2964 2962
2960 2960 2961 2963 2962 2962 2965 2965 2968 2971 2972 2973 2975 2975 2975 2976 2977 2977 2978 2978 2979 2979 2978 2978 2977 2976 2975 2974 2973 2972 2972 2972 2972 2970 2969 2967 2965 2963 2961 2958 2955 2954 2953 2952
2953 2955 2957 2958 2959 2960 2961 2963 2965 2966 2967 2967 2968 2969 2969 2969 2970 2971 2971 2971 2972 2971 2971 2970 2969 2968 2966 2965 2964 2963 2962 2962 2961 2960 2958 2956 2953 2950 2950 2950 2950 2948 2945 2943
2948 2951 2953 2953 2953 2955 2958 2959 2960 2961 2962 2962 2961 2961 2962 2963 2964 2964 2964 2964 2964 2964 2963 2962 2961 2960 2959 2957 2956 2955 2955 2955 2954 2953 2952 2951 2949 2948 2945 2943 2941 2938 2936 2932
2943 2945 2948 2948 2950 2952 2953 2954 2954 2954 2954 2953 2953 2954 2954 2956 2957 2957 2957 2956 2955 2955 2954 2953 2952 2950 2949 2949 2949 2949 2948 2947 2945 2944 2942 2941 2938 2936 2934 2932 2930 2928 2926 2923
2938 2940 2942 2943 2944 2945 2946 2946 2946 2947 2947 2947 2947 2946 2947 2948 2949 2949 2949 2949 2948 2947 2946 2944 2944 2943 2943 2943 2942 2941 2939 2937 2935 2934 2934 2932 2930 2928 2926 2924 2922 2919 2916 2912
2933 2935 2936 2937 2938 2939 2940 2940 2940 2940 2941 2940 2940 2940 2941 2941 2941 2942 2942 2941 2940 2939 2939 2938 2938 2937 2936 2936 2934 2932 2932 2931 2930 2929 2927 2925 2923 2921 2918 2915 2912 2908 2903 2899
2927 2929 2930 2931 2931 2931 2932 2932 2933 2932 2932 2931 2931 2932 2933 2932 2932 2933 2934 2933 2932 2932 2932 2931 2930 2930 2929 2928 2928 2927 2926 2925 2923 2922 2920 2917 2914 2911 2908 2904 2899 2894 2890 2886
2919 2920 2921 2921 2921 2921 2921 2922 2922 2921 2922 2922 2922 2923 2924 2924 2924 2925 2926 2926 2927 2926 2926 2926 2925 2926 2925 2924 2923 2922 2921 2919 2917 2915 2912 2908 2904 2900 2895 2891 2886 2882 2877 2872
2909 2910 2910 2910 2911 2912 2913 2914 2914 2914 2914 2915 2917 2919 2920 2921 2922 2921 2922 2923 2924 2924 2923 2923 2923 2922 2921 2919 2918 2916 2913 2911 2908 2905 2901 2896 2892 2887 2882 2878 2873 2868 2863 2858
2906 2906 2905 2905 2906 2907 2908 2909 2910 2910 2911 2913 2914 2916 2918 2919 2920 2921 2922 2924 2923 2922 2921 2920 2918 2916 2914 2912 2909 2907 2904 2900 2897 2893 2888 2883 2878 2873 2868 2863 2857 2852 2847 2842
2904 2903 2903 2904 2906 2907 2908 2910 2911 2913 2913 2914 2915 2917 2918 2920 2921 2922 2922 2922 2921 2919 2917 2914 2912 2909 2906 2903 2900 2897 2893 2889 2885 2880 2875 2870 2864 2859 2853 2848 2843 2837 2832 2828
2903 2905 2906 2908 2910 2911 2912 2913 2915 2916 2917 2917 2918 2919 2919 2920 2920 2920 2919 2918 2916 2914 2911 2908 2904 2901 2897 2894 2890 2886 2882 2877 2873 2868 2863 2857 2852 2846 2841 2835 2830 2825 2820 2816
2909 2910 2912 2913 2914 2915 2915 2916 2917 2918 2918 2918 2918 2918 2918 2918 2918 2916 2914 2912 2909 2906 2903 2900 2896 2892 2888 2884 2880 2876 2872 2867 2862 2857 2853 2847 2842 2836 2831 2826 2821 2817 2813 2809
2912 2913 2915 2916 2917 2917 2917 2917 2918 2918 2917 2917 2917 2916 2915 2913 2912 2909 2907 2903 2901 2898 2895 2892 2888 2885 2881 2877 2873 2868 2864 2859 2854 2849 2844 2839 2834 2829 2825 2821 2816 2812 2808 2804
2915 2917 2919 2919 2918 2918 2918 2918 2917 2916 2915 2914 2912 2911 2909 2907 2905 2902 2900 2898 2895 2892 2888 2885 2881 2878 2874 2869 2865 2861 2856 2852 2847 2843 2838 2834 2830 2826 2822 2817 2812 2808 2804 2800